FW0327 Weather Reports


time (UTC)temp
F
wind
direction
speed
knots
gust
knots
rain 1hr
in
rain 24hr
in
rain mn
in
humidity
%
barometer
mb
20260504045114 44 0.0 0.0 0.00 0.00 0.00 89 1015.3
20260504044035 44 0.0 0.0 0.00 0.00 0.00 89 1015.3
20260504043035 44 0.0 0.0 0.00 0.00 0.00 89 1015.1
20260504042036 44 0.0 0.0 0.00 0.00 0.00 89 1015.2
20260504041036 44 0.0 0.0 0.00 0.00 0.00 89 1015.3
20260504040037 44 0.0 0.0 0.00 0.00 0.00 90 1015.3
20260504035037 44 0.0 0.0 0.00 0.00 0.00 90 1015.4
20260504034037 44 0.0 0.0 0.00 0.00 0.00 90 1015.4
20260504033038 44 0.0 0.0 0.00 0.00 0.00 89 1015.5
20260504032058 45 0.0 0.0 0.00 0.00 0.00 88 1015.5
20260504031038 45 0.0 0.0 0.00 0.00 0.00 87 1015.5
20260504030039 46 0.0 0.0 0.00 0.00 0.00 87 1015.6
20260504025039 46 0.0 0.0 0.00 0.00 0.00 86 1015.4
20260504024100 46 0.0 0.0 0.00 0.00 0.00 86 1015.4
20260504023040 46 0.0 0.0 0.00 0.00 0.00 86 1015.4
20260504022041 47 321 0.0 0.9 0.00 0.00 0.00 85 1015.4
20260504021041 47 0.0 0.0 0.00 0.00 0.00 85 1015.4
20260504020041 47 0.0 0.0 0.00 0.00 0.00 84 1015.4
20260504015042 48 0.0 0.0 0.00 0.00 0.00 83 1015.4
20260504014042 48 269 0.0 0.9 0.00 0.00 0.00 84 1015.3
20260504013042 48 0.0 0.0 0.00 0.00 0.00 83 1015.3
20260504012043 48 295 0.0 0.9 0.00 0.00 0.00 83 1015.3
20260504011043 49 0.0 0.0 0.00 0.00 0.00 82 1015.3
20260504010044 49 296 0.0 1.7 0.00 0.00 0.00 83 1015.3
20260504005105 50 298 0.0 0.9 0.00 0.00 0.00 82 1015.3
20260504004017 50 277 0.0 0.9 0.00 0.00 0.00 81 1015.3
20260504003017 50 0.0 0.0 0.00 0.00 0.00 81 1015.3
20260504002017 50 0.0 0.0 0.00 0.00 0.00 81 1015.3
20260504001018 51 0.0 0.0 0.00 0.00 0.00 79 1015.3
20260504000018 51 0.0 0.0 0.00 0.00 0.00 78 1015.3
20260503235019 52 0.0 0.0 0.00 0.00 0.00 78 1015.5
20260503234019 52 0.0 0.0 0.00 0.00 0.00 75 1015.4
20260503233020 52 0.0 0.0 0.00 0.00 0.00 75 1015.4
20260503232020 52 0.0 0.0 0.00 0.00 0.00 77 1015.4
20260503231041 52 0.0 0.0 0.00 0.00 0.00 76 1015.4
20260503230021 53 0.0 0.0 0.00 0.00 0.00 75 1015.5
20260503225021 53 0.0 0.0 0.00 0.00 0.00 73 1015.5
20260503224022 54 0.0 0.0 0.00 0.00 0.00 71 1015.5
20260503223022 53 0.0 0.0 0.00 0.00 0.00 72 1015.5
20260503222023 53 0.0 0.0 0.00 0.00 0.00 72 1015.4
20260503221023 54 0.0 0.0 0.00 0.00 0.00 70 1015.3
20260503220024 54 0.0 0.0 0.00 0.00 0.00 69 1015.3
20260503215024 54 0.0 0.0 0.00 0.00 0.00 69 1015.4
20260503214024 54 0.0 0.0 0.00 0.00 0.00 69 1015.3
20260503213024 55 0.0 0.0 0.00 0.00 0.00 68 1015.4
20260503212045 55 0.0 0.0 0.00 0.00 0.00 68 1015.2
20260503211106 55 0.0 0.0 0.00 0.00 0.00 67 1015.2
20260503210026 56 0.0 0.0 0.00 0.00 0.00 65 1015.0
20260503205026 56 0.0 0.0 0.00 0.00 0.00 64 1015.1
20260503204027 57 0.0 0.0 0.00 0.00 0.00 62 1015.0
20260503203047 58 0.0 0.0 0.00 0.00 0.00 60 1015.1
20260503202028 59 286 0.0 1.7 0.00 0.00 0.00 58 1015.2
20260503201048 59 306 0.0 0.9 0.00 0.00 0.00 57 1015.2
20260503200028 60 0.0 0.0 0.00 0.00 0.00 54 1015.2
20260503195029 60 0.0 0.0 0.00 0.00 0.00 54 1015.1
20260503194049 61 282 0.9 0.9 0.00 0.00 0.00 53 1015.0
20260503193030 61 268 0.9 1.7 0.00 0.00 0.00 53 1015.0
20260503192030 61 0.0 0.0 0.00 0.00 0.00 53 1015.2
20260503191031 61 295 0.9 4.3 0.00 0.00 0.00 52 1015.2
20260503190031 62 266 0.9 4.3 0.00 0.00 0.00 52 1015.0
20260503185032 62 201 1.7 4.3 0.00 0.00 0.00 52 1015.0
20260503184032 62 301 0.9 5.2 0.00 0.00 0.00 52 1015.2
20260503183034 62 279 2.6 6.1 0.00 0.00 0.00 51 1015.1
20260503182017 63 261 1.7 5.2 0.00 0.00 0.00 48 1015.1
20260503181017 63 282 1.7 5.2 0.00 0.00 0.00 47 1015.1
20260503180033 64 280 1.7 4.3 0.00 0.00 0.00 46 1015.1
20260503175018 65 272 1.7 4.3 0.00 0.00 0.00 44 1015.0
20260503174034 65 285 2.6 7.0 0.00 0.00 0.00 43 1014.9
20260503173055 65 270 2.6 7.0 0.00 0.00 0.00 44 1014.8
20260503172115 66 269 3.5 7.8 0.00 0.00 0.00 43 1015.1
20260503171035 67 270 2.6 7.8 0.00 0.00 0.00 46 1015.1
20260503131029 78 267 2.6 6.1 0.00 0.00 0.00 31 1014.7
20260503081026 68 264 3.5 7.8 0.00 0.00 0.00 35 1016.4
20260503072028 63 270 1.7 5.2 0.00 0.00 0.00 42 1016.4
20260503071048 61 246 0.9 2.6 0.00 0.00 0.00 44 1016.4
20260503055032 52 0.0 0.0 0.00 0.00 0.00 81 1016.4
20260503054032 51 0.0 0.0 0.00 0.00 0.00 83 1016.2
20260503053032 50 290 0.0 0.9 0.00 0.00 0.00 84 1016.2
20260503052033 50 0.0 0.0 0.00 0.00 0.00 85 1016.3
20260503051053 50 0.0 0.0 0.00 0.00 0.00 85 1016.1